GAP2361 RPVM-RPME

Flight info

Callsign GAP2361
Flight time 0h 34m
Altitude 17000
Route CAREB1Q CAREB DCT EVLIN W9A BULAD KAWI2B
Aircraft DH8D/M-SDE2E3FGRY/H

Departure

Time 2026-04-28 03:53
Airport Mactan Cebu International Airport (RPVM)

Arrival

Time 2026-04-28 04:28
Airport Bancasi Airport (RPME)
Time Latitude Longitude Altitude Speed Heading
2026-04-28 03:39 10.31784 123.98189 38 ft 0 kts 314°
2026-04-28 03:43 10.31784 123.98188 38 ft 0 kts 314°
2026-04-28 03:43 10.31784 123.98189 38 ft 0 kts 314°
2026-04-28 03:43 10.31779 123.98194 38 ft 2 kts 314°
2026-04-28 03:44 10.31768 123.98205 38 ft 1 kts 314°
2026-04-28 03:44 10.31762 123.98212 38 ft 2 kts 302°
2026-04-28 03:44 10.31757 123.98226 38 ft 2 kts 269°
2026-04-28 03:44 10.31761 123.98241 38 ft 2 kts 238°
2026-04-28 03:45 10.31764 123.98245 38 ft 1 kts 226°
2026-04-28 03:45 10.31739 123.98220 38 ft 7 kts 224°
2026-04-28 03:45 10.31702 123.98183 38 ft 6 kts 224°
2026-04-28 03:45 10.31684 123.98165 38 ft 1 kts 224°
2026-04-28 03:46 10.31683 123.98164 38 ft 0 kts 224°
2026-04-28 03:48 10.31682 123.98163 38 ft 1 kts 224°
2026-04-28 03:48 10.31664 123.98146 38 ft 5 kts 221°
2026-04-28 03:48 10.31632 123.98120 38 ft 5 kts 208°
2026-04-28 03:48 10.31591 123.98123 38 ft 7 kts 148°
2026-04-28 03:49 10.31545 123.98168 38 ft 10 kts 134°
2026-04-28 03:49 10.31491 123.98223 38 ft 7 kts 140°
2026-04-28 03:49 10.31444 123.98222 38 ft 8 kts 220°
2026-04-28 03:49 10.31390 123.98170 38 ft 12 kts 225°
2026-04-28 03:50 10.31320 123.98099 38 ft 15 kts 224°
2026-04-28 03:50 10.31234 123.98013 38 ft 19 kts 225°
2026-04-28 03:50 10.31141 123.97920 38 ft 17 kts 224°
2026-04-28 03:50 10.31049 123.97827 38 ft 18 kts 225°
2026-04-28 03:51 10.30956 123.97732 38 ft 19 kts 225°
2026-04-28 03:51 10.30857 123.97633 38 ft 20 kts 224°
2026-04-28 03:51 10.30755 123.97530 38 ft 20 kts 225°
2026-04-28 03:51 10.30654 123.97430 38 ft 18 kts 225°
2026-04-28 03:52 10.30587 123.97368 38 ft 11 kts 204°
2026-04-28 03:52 10.30518 123.97390 38 ft 9 kts 150°
2026-04-28 03:52 10.30495 123.97407 38 ft 1 kts 93°
2026-04-28 03:52 10.30505 123.97422 38 ft 4 kts 44°
2026-04-28 03:53 10.30665 123.97582 38 ft 76 kts 44°
2026-04-28 03:53 10.31244 123.98164 41 ft 148 kts 44°
2026-04-28 03:53 10.32008 123.98955 416 ft 164 kts 43°
2026-04-28 03:53 10.32839 123.99797 1029 ft 174 kts 45°
2026-04-28 03:54 10.33704 124.00671 1740 ft 179 kts 45°
2026-04-28 03:54 10.34580 124.01574 2322 ft 184 kts 51°
2026-04-28 03:54 10.34987 124.02763 2811 ft 188 kts 95°
2026-04-28 03:54 10.34597 124.04022 3395 ft 188 kts 109°
2026-04-28 03:55 10.34110 124.05264 3970 ft 190 kts 109°
2026-04-28 03:55 10.33620 124.06493 4521 ft 192 kts 110°
2026-04-28 03:55 10.33116 124.07745 5123 ft 191 kts 109°
2026-04-28 03:55 10.32614 124.08990 5649 ft 193 kts 110°
2026-04-28 03:56 10.32105 124.10248 6150 ft 195 kts 110°
2026-04-28 03:56 10.31593 124.11514 6665 ft 196 kts 110°
2026-04-28 03:56 10.31074 124.12793 7168 ft 198 kts 110°
2026-04-28 03:56 10.30549 124.14087 7638 ft 201 kts 110°
2026-04-28 03:57 10.30017 124.15396 8126 ft 202 kts 110°
2026-04-28 03:57 10.29478 124.16724 8573 ft 205 kts 110°
2026-04-28 03:57 10.28934 124.18061 9035 ft 208 kts 110°
2026-04-28 03:57 10.28383 124.19415 9512 ft 209 kts 110°
2026-04-28 03:58 10.27834 124.20764 9977 ft 209 kts 110°
2026-04-28 03:58 10.27270 124.22147 10412 ft 212 kts 110°
2026-04-28 03:58 10.26702 124.23544 10813 ft 215 kts 110°
2026-04-28 03:58 10.26138 124.24929 11237 ft 216 kts 110°
2026-04-28 03:59 10.25557 124.26355 11636 ft 219 kts 110°
2026-04-28 03:59 10.24976 124.27782 12068 ft 219 kts 110°
2026-04-28 03:59 10.24389 124.29221 12441 ft 221 kts 110°
2026-04-28 03:59 10.23800 124.30666 12793 ft 225 kts 110°
2026-04-28 04:00 10.23200 124.32138 13173 ft 226 kts 110°
2026-04-28 04:00 10.22574 124.33611 13524 ft 228 kts 115°
2026-04-28 04:00 10.21763 124.34989 13850 ft 231 kts 121°
2026-04-28 04:00 10.20885 124.36352 14203 ft 232 kts 121°
2026-04-28 04:01 10.20000 124.37726 14536 ft 233 kts 121°
2026-04-28 04:01 10.19117 124.39099 14877 ft 235 kts 121°
2026-04-28 04:01 10.18225 124.40489 15204 ft 236 kts 121°
2026-04-28 04:01 10.17324 124.41896 15516 ft 238 kts 121°
2026-04-28 04:02 10.16413 124.43318 15834 ft 239 kts 121°
2026-04-28 04:02 10.15510 124.44731 16114 ft 242 kts 121°
2026-04-28 04:02 10.14586 124.46176 16414 ft 244 kts 121°
2026-04-28 04:02 10.13661 124.47622 16695 ft 246 kts 121°
2026-04-28 04:03 10.12722 124.49094 16814 ft 256 kts 121°
2026-04-28 04:03 10.11719 124.50668 16862 ft 269 kts 121°
2026-04-28 04:03 10.10682 124.52296 16875 ft 282 kts 121°
2026-04-28 04:03 10.09606 124.53985 16879 ft 293 kts 121°
2026-04-28 04:04 10.08473 124.55763 16882 ft 304 kts 121°
2026-04-28 04:04 10.07303 124.57598 16877 ft 313 kts 121°
2026-04-28 04:04 10.06102 124.59480 16878 ft 320 kts 121°
2026-04-28 04:04 10.04891 124.61377 16874 ft 326 kts 121°
2026-04-28 04:05 10.03641 124.63335 16870 ft 331 kts 121°
2026-04-28 04:05 10.02370 124.65324 16871 ft 335 kts 121°
2026-04-28 04:05 10.01097 124.67316 16866 ft 339 kts 121°
2026-04-28 04:05 9.99823 124.69310 16866 ft 341 kts 121°
2026-04-28 04:06 9.98529 124.71335 16870 ft 341 kts 121°
2026-04-28 04:06 9.97228 124.73370 16868 ft 342 kts 121°
2026-04-28 04:06 9.95943 124.75376 16871 ft 342 kts 122°
2026-04-28 04:06 9.94643 124.77409 16878 ft 342 kts 122°
2026-04-28 04:07 9.93342 124.79439 16882 ft 342 kts 122°
2026-04-28 04:07 9.92041 124.81471 16883 ft 342 kts 121°
2026-04-28 04:07 9.90756 124.83477 16886 ft 342 kts 122°
2026-04-28 04:07 9.89448 124.85519 16886 ft 342 kts 122°
2026-04-28 04:08 9.88154 124.87538 16884 ft 342 kts 121°
2026-04-28 04:08 9.86857 124.89562 16877 ft 342 kts 121°
2026-04-28 04:08 9.85564 124.91579 16871 ft 342 kts 121°
2026-04-28 04:08 9.84271 124.93594 16870 ft 343 kts 121°
2026-04-28 04:09 9.82961 124.95638 16867 ft 343 kts 121°
2026-04-28 04:09 9.81667 124.97656 16869 ft 343 kts 121°
2026-04-28 04:09 9.80371 124.99675 16865 ft 343 kts 122°
2026-04-28 04:09 9.79057 125.01722 16864 ft 343 kts 121°
2026-04-28 04:10 9.77739 125.03730 16856 ft 344 kts 124°
2026-04-28 04:10 9.75974 125.05341 16873 ft 344 kts 147°
2026-04-28 04:10 9.73852 125.06525 16859 ft 345 kts 150°
2026-04-28 04:10 9.71740 125.07661 16856 ft 345 kts 150°
2026-04-28 04:11 9.69626 125.08792 16857 ft 345 kts 151°
2026-04-28 04:11 9.67486 125.09938 16862 ft 348 kts 151°
2026-04-28 04:11 9.65292 125.11115 16873 ft 363 kts 150°
2026-04-28 04:11 9.63010 125.12341 16872 ft 372 kts 150°
2026-04-28 04:12 9.60747 125.13556 16858 ft 371 kts 150°
2026-04-28 04:12 9.58441 125.14797 16853 ft 369 kts 150°
2026-04-28 04:12 9.56179 125.16019 16856 ft 368 kts 150°
2026-04-28 04:12 9.53913 125.17244 16860 ft 368 kts 150°
2026-04-28 04:13 9.51643 125.18470 16871 ft 368 kts 150°
2026-04-28 04:13 9.49387 125.19689 16870 ft 369 kts 150°
2026-04-28 04:13 9.47104 125.20923 16866 ft 369 kts 150°
2026-04-28 04:13 9.44861 125.22134 16866 ft 368 kts 150°
2026-04-28 04:14 9.42572 125.23370 16864 ft 368 kts 150°
2026-04-28 04:14 9.40308 125.24592 16859 ft 368 kts 150°
2026-04-28 04:14 9.38055 125.25809 16861 ft 367 kts 150°
2026-04-28 04:14 9.35818 125.27016 16862 ft 363 kts 150°
2026-04-28 04:15 9.33587 125.28220 16858 ft 360 kts 150°
2026-04-28 04:15 9.31363 125.29422 16579 ft 366 kts 150°
2026-04-28 04:15 9.26833 125.31870 15674 ft 363 kts 150°
2026-04-28 04:16 9.24614 125.33068 15201 ft 357 kts 150°
2026-04-28 04:16 9.22455 125.34234 14743 ft 352 kts 150°
2026-04-28 04:16 9.20290 125.35402 14281 ft 348 kts 150°
2026-04-28 04:16 9.18207 125.36613 13775 ft 343 kts 142°
2026-04-28 04:17 9.16598 125.38354 13383 ft 334 kts 125°
2026-04-28 04:17 9.15254 125.40231 12929 ft 332 kts 123°
2026-04-28 04:17 9.13903 125.42139 12526 ft 327 kts 123°
2026-04-28 04:17 9.12591 125.43996 12152 ft 323 kts 123°
2026-04-28 04:18 9.11293 125.45831 11754 ft 325 kts 123°
2026-04-28 04:18 9.09991 125.47671 11324 ft 314 kts 123°
2026-04-28 04:18 9.08756 125.49418 10916 ft 299 kts 123°
2026-04-28 04:18 9.07570 125.51089 10537 ft 285 kts 123°
2026-04-28 04:19 9.06430 125.52693 10180 ft 278 kts 123°
2026-04-28 04:19 9.05310 125.54266 9832 ft 274 kts 123°
2026-04-28 04:19 9.04208 125.55814 9485 ft 271 kts 123°
2026-04-28 04:19 9.03102 125.57368 9130 ft 268 kts 123°
2026-04-28 04:20 9.02027 125.58878 8777 ft 265 kts 123°
2026-04-28 04:20 9.00953 125.60387 8429 ft 262 kts 123°
2026-04-28 04:20 8.99907 125.61857 8094 ft 259 kts 123°
2026-04-28 04:20 8.98861 125.63327 7755 ft 249 kts 123°
2026-04-28 04:21 8.97881 125.64706 7442 ft 239 kts 123°
2026-04-28 04:21 8.96914 125.66061 7142 ft 233 kts 123°
2026-04-28 04:21 8.95974 125.67376 6840 ft 232 kts 124°
2026-04-28 04:21 8.95034 125.68695 6535 ft 228 kts 124°
2026-04-28 04:22 8.94123 125.69973 6228 ft 224 kts 124°
2026-04-28 04:22 8.92931 125.71018 5747 ft 231 kts 156°
2026-04-28 04:22 8.91344 125.71088 5482 ft 237 kts 193°
2026-04-28 04:22 8.89791 125.70436 5198 ft 245 kts 204°
2026-04-28 04:23 8.88251 125.69682 4867 ft 240 kts 204°
2026-04-28 04:23 8.86849 125.68781 4308 ft 244 kts 226°
2026-04-28 04:23 8.86191 125.67282 3954 ft 232 kts 266°
2026-04-28 04:23 8.86509 125.65752 3685 ft 216 kts 293°
2026-04-28 04:24 8.87116 125.64372 3405 ft 214 kts 296°
2026-04-28 04:24 8.87745 125.63015 3126 ft 213 kts 296°
2026-04-28 04:24 8.88383 125.61664 2844 ft 211 kts 297°
2026-04-28 04:24 8.89022 125.60329 2566 ft 209 kts 297°
2026-04-28 04:25 8.89644 125.59030 2284 ft 200 kts 298°
2026-04-28 04:25 8.90239 125.57800 2043 ft 188 kts 298°
2026-04-28 04:25 8.90804 125.56640 1794 ft 180 kts 298°
2026-04-28 04:25 8.91325 125.55570 1554 ft 162 kts 298°
2026-04-28 04:26 8.91793 125.54609 1364 ft 145 kts 299°
2026-04-28 04:26 8.92240 125.53715 1172 ft 141 kts 299°
2026-04-28 04:26 8.92686 125.52826 987 ft 141 kts 300°
2026-04-28 04:26 8.93127 125.51952 798 ft 140 kts 301°
2026-04-28 04:27 8.93573 125.51070 600 ft 141 kts 301°
2026-04-28 04:27 8.94005 125.50194 395 ft 138 kts 301°
2026-04-28 04:27 8.94441 125.49324 209 ft 135 kts 301°
2026-04-28 04:27 8.94859 125.48473 66 ft 135 kts 301°
2026-04-28 04:28 8.95228 125.47732 47 ft 93 kts 297°
2026-04-28 04:28 8.95461 125.47253 42 ft 51 kts 296°
2026-04-28 04:28 8.95560 125.47064 41 ft 16 kts 311°
2026-04-28 04:28 8.95602 125.47002 40 ft 4 kts 249°
2026-04-28 04:29 8.95579 125.47010 40 ft 5 kts 119°
2026-04-28 04:29 8.95554 125.47061 41 ft 11 kts 116°
2026-04-28 04:29 8.95505 125.47162 41 ft 19 kts 117°
2026-04-28 04:29 8.95436 125.47303 43 ft 24 kts 116°
2026-04-28 04:30 8.95354 125.47470 44 ft 28 kts 116°
2026-04-28 04:30 8.95261 125.47658 46 ft 30 kts 116°
2026-04-28 04:30 8.95167 125.47854 49 ft 32 kts 117°
2026-04-28 04:30 8.95069 125.48049 51 ft 27 kts 117°
2026-04-28 04:31 8.94993 125.48202 53 ft 21 kts 116°
2026-04-28 04:31 8.94945 125.48297 54 ft 8 kts 138°
2026-04-28 04:31 8.94904 125.48284 55 ft 7 kts 243°
2026-04-28 04:31 8.94892 125.48235 54 ft 5 kts 280°
2026-04-28 04:32 8.94893 125.48197 54 ft 6 kts 244°
2026-04-28 04:32 8.94875 125.48170 54 ft 3 kts 236°
2026-04-28 04:32 8.94867 125.48158 54 ft 0 kts 236°